Location: Enikep?du
(16.5133°N, 80.7066°E)
Time: 17:55:55
(UTC+00:00)

NOSS 3-4 (C) - Pass Details

Date: 20 January 2020
Orbit: 905 x 1307 km, 63.4° (Epoch: 21 February)

Event Time Altitude Azimuth Distance (km) Brightness Sun altitude
Rises 00:23:06 0° 223° (SW) 3,556 6.2 -11.3°
Reaches altitude 10° 00:25:49 10° 231° (SW) 2,592 5.4 -10.7°
Maximum altitude 00:31:17 37° 298° (WNW) 1,365 3.8 -9.4°
Drops below altitude 10° 00:36:47 10° 5° (N) 2,607 5.6 -8.2°
Sets 00:39:33 0° 13° (NNE) 3,581 6.4 -7.5°
